TimeEDT,TemperatureF,Dew PointF,Humidity,Sea Level PressureIn,VisibilityMPH,Wind Direction,Wind SpeedMPH,Gust SpeedMPH,PrecipitationIn,Events,Conditions,WindDirDegrees,DateUTC
12:53 AM,64.9,57.9,78,30.20,10.0,Calm,Calm,-,N/A,,Clear,0,2012-09-27 04:53:00
1:53 AM,63.0,57.9,84,30.20,10.0,North,3.5,-,N/A,,Clear,350,2012-09-27 05:53:00
2:53 AM,62.1,57.0,84,30.19,10.0,Calm,Calm,-,N/A,,Clear,0,2012-09-27 06:53:00
3:53 AM,61.0,57.0,87,30.16,10.0,Calm,Calm,-,N/A,,Clear,0,2012-09-27 07:53:00
4:53 AM,60.1,57.0,90,30.16,10.0,Calm,Calm,-,N/A,,Clear,0,2012-09-27 08:53:00
5:53 AM,59.0,55.9,90,30.18,10.0,Calm,Calm,-,N/A,,Clear,0,2012-09-27 09:53:00
6:53 AM,59.0,55.9,90,30.20,10.0,Calm,Calm,-,N/A,,Clear,0,2012-09-27 10:53:00
7:53 AM,60.1,55.9,86,30.20,10.0,Calm,Calm,-,N/A,,Clear,0,2012-09-27 11:53:00
8:53 AM,66.0,57.9,75,30.21,10.0,Calm,Calm,-,N/A,,Clear,0,2012-09-27 12:53:00
9:53 AM,70.0,59.0,68,30.22,10.0,Calm,Calm,-,N/A,,Clear,0,2012-09-27 13:53:00
10:53 AM,75.0,57.9,55,30.22,10.0,WNW,4.6,-,N/A,,Clear,290,2012-09-27 14:53:00
11:53 AM,79.0,57.0,47,30.22,10.0,Variable,5.8,-,N/A,,Clear,0,2012-09-27 15:53:00
12:53 PM,81.0,53.1,38,30.19,10.0,NNW,4.6,-,N/A,,Clear,340,2012-09-27 16:53:00
1:53 PM,81.0,55.0,41,30.17,10.0,Variable,3.5,-,N/A,,Clear,0,2012-09-27 17:53:00
2:53 PM,82.9,54.0,37,30.14,10.0,Calm,Calm,-,N/A,,Clear,0,2012-09-27 18:53:00
3:53 PM,82.9,54.0,37,30.12,10.0,Calm,Calm,-,N/A,,Partly Cloudy,0,2012-09-27 19:53:00
4:53 PM,82.9,53.1,36,30.11,10.0,WNW,4.6,-,N/A,,Clear,300,2012-09-27 20:53:00
5:53 PM,82.0,53.1,37,30.11,10.0,Calm,Calm,-,N/A,,Clear,0,2012-09-27 21:53:00
6:53 PM,80.1,57.0,45,30.12,10.0,WNW,3.5,-,N/A,,Clear,300,2012-09-27 22:53:00
7:53 PM,78.1,57.9,50,30.12,10.0,Calm,Calm,-,N/A,,Clear,0,2012-09-27 23:53:00
8:53 PM,75.9,59.0,56,30.12,10.0,Calm,Calm,-,N/A,,Scattered Clouds,0,2012-09-28 00:53:00
9:53 PM,73.9,57.9,57,30.13,10.0,Calm,Calm,-,N/A,,Clear,0,2012-09-28 01:53:00
10:53 PM,73.0,57.9,59,30.13,10.0,Calm,Calm,-,N/A,,Clear,0,2012-09-28 02:53:00
11:53 PM,69.1,61.0,75,30.14,10.0,Calm,Calm,-,N/A,,Overcast,0,2012-09-28 03:53:00